Location: El Dieciséis
(32.4721°N, 116.6080°W)
Time: 06:43:57
(UTC+00:00)

ARIANE 6 FM1 Upper Stage - Pass Details

Date: 15 August 2024
Orbit: 566 x 594 km, 62.0° (Epoch: 19 September)

Event Time Altitude Azimuth Distance (km) Brightness Sun altitude
Rises 12:25:42 0° 165° (SSE) 2,767 6.1 -9.8°
Reaches altitude 10° 12:29:14 10° 134° (SE) 1,883 5.7 -9.1°
Maximum altitude 12:30:52 12° 111° (ESE) 1,759 5.9 -8.8°
Drops below altitude 10° 12:32:31 10° 88° (E) 1,895 6.7 -8.4°
Sets 12:36:05 0° 57° (ENE) 2,809 8.3 -7.7°
